Location: Pensacola
(30.4142°N, 87.2155°W)
Time: 22:02:50
(UTC-05:00)

SEEDS - Visible Passes

Search period start: 30 May 2023 00:00
Search period end: 09 June 2023 00:00
Orbit: 568 x 587 km, 97.7° (Epoch: 30 May)

Date Brightness Start Highest point End Pass type
(mag) Time Alt. Az. Time Alt. Az. Time Alt. Az.
30 May ? 04:06:25 10° NE 04:10:01 30° E 04:13:36 10° SSE visible
31 May ? 04:10:31 10° NNE 04:14:14 34° E 04:17:56 10° SSE visible
01 Jun ? 04:14:37 10° NNE 04:18:26 39° E 04:22:14 10° SSE visible
02 Jun ? 04:18:43 10° NNE 04:22:37 45° E 04:26:31 10° S visible
03 Jun ? 04:22:50 10° NNE 04:26:48 51° E 04:30:46 10° S visible
04 Jun ? 04:26:57 10° NNE 04:30:58 59° E 04:34:58 10° S visible
05 Jun ? 04:31:04 10° NNE 04:35:08 68° E 04:39:11 10° S visible
06 Jun ? 04:35:12 10° NNE 04:39:17 78° ESE 04:43:21 10° S visible
07 Jun ? 04:39:20 10° NNE 04:43:25 88° E 04:47:29 10° SSW visible
08 Jun ? 04:43:28 10° N 04:47:32 81° WNW 04:51:37 10° SSW visible
